QPF
0.03 0.03 0.02 0.02 0.02 0.02 0.02 0.03 0.02 0.02 0.01 0.02 0.02 0.01 0.02 0.04 0.03 0.03 0.04 0.05 0.08 0.09 0.10 0.11 0.10 0.09 0.09 0.09 0.08 0.09 0.09 0.08 0.07 0.06 0.05 0.05 0.05 0.04 0.04 0.03 0.03 0.04 0.06
0.03 0.03 0.02 0.01 0.02 0.03 0.04 0.03 0.02 0.03 0.02 0.02 0.02 0.02 0.01 0.03 0.07 0.08 0.10 0.09 0.10 0.10 0.11 0.12 0.13 0.13 0.12 0.12 0.10 0.12 0.12 0.09 0.08 0.07 0.06 0.06 0.05 0.05 0.06 0.06 0.05 0.04 0.05
0.03 0.03 0.03 0.02 0.04 0.05 0.05 0.03 0.02 0.02 0.02 0.02 0.02 0.02 0.02 0.03 0.06 0.10 0.14 0.14 0.09 0.10 0.11 0.12 0.14 0.16 0.15 0.14 0.14 0.13 0.13 0.12 0.09 0.07 0.08 0.07 0.07 0.06 0.06 0.06 0.06 0.07 0.07
0.02 0.02 0.02 0.02 0.04 0.04 0.03 0.03 0.02 0.01 0.01 0.01 0.02 0.02 0.03 0.03 0.03 0.06 0.10 0.10 0.08 0.07 0.10 0.11 0.12 0.16 0.19 0.19 0.18 0.16 0.13 0.13 0.10 0.07 0.07 0.06 0.06 0.05 0.05 0.05 0.05 0.06 0.07
0.02 0.01 0.02 0.02 0.03 0.02 0.02 0.02 0.01 0.00 0.00 0.02 0.04 0.03 0.02 0.03 0.03 0.04 0.05 0.06 0.06 0.06 0.06 0.08 0.11 0.14 0.18 0.21 0.25 0.27 0.21 0.16 0.11 0.08 0.06 0.06 0.05 0.05 0.04 0.04 0.04 0.04 0.04
0.03 0.03 0.02 0.03 0.04 0.03 0.03 0.03 0.01 0.01 0.01 0.02 0.02 0.03 0.05 0.04 0.03 0.05 0.05 0.05 0.04 0.03 0.03 0.05 0.08 0.09 0.13 0.16 0.23 0.30 0.26 0.20 0.14 0.09 0.06 0.05 0.05 0.04 0.04 0.04 0.04 0.03 0.02
0.08 0.08 0.04 0.03 0.03 0.02 0.02 0.02 0.01 0.01 0.01 0.01 0.02 0.06 0.09 0.05 0.03 0.05 0.06 0.05 0.04 0.04 0.03 0.03 0.05 0.04 0.06 0.09 0.12 0.15 0.18 0.18 0.16 0.12 0.07 0.05 0.04 0.04 0.04 0.04 0.04 0.03 0.03
0.07 0.06 0.05 0.05 0.03 0.02 0.01 0.01 0.02 0.02 0.01 0.02 0.02 0.05 0.08 0.07 0.05 0.04 0.04 0.04 0.04 0.04 0.04 0.04 0.04 0.02 0.03 0.04 0.07 0.09 0.11 0.17 0.21 0.19 0.14 0.10 0.08 0.05 0.04 0.04 0.04 0.05 0.05
0.07 0.05 0.04 0.04 0.04 0.02 0.01 0.02 0.01 0.01 0.01 0.01 0.02 0.02 0.03 0.04 0.05 0.04 0.02 0.02 0.02 0.02 0.02 0.03 0.03 0.02 0.03 0.02 0.04 0.06 0.07 0.10 0.19 0.25 0.24 0.20 0.15 0.11 0.09 0.06 0.05 0.05 0.06
0.08 0.09 0.05 0.02 0.02 0.02 0.01 0.01 0.01 0.01 0.01 0.01 0.02 0.02 0.02 0.02 0.03 0.04 0.03 0.02 0.02 0.02 0.02 0.02 0.02 0.02 0.03 0.05 0.05 0.05 0.07 0.08 0.11 0.20 0.25 0.23 0.20 0.17 0.13 0.08 0.05 0.06 0.06
0.06 0.06 0.06 0.05 0.04 0.02 0.02 0.01 0.01 0.02 0.02 0.02 0.02 0.02 0.02 0.02 0.02 0.03 0.03 0.03 0.02 0.02 0.01 0.02 0.02 0.02 0.05 0.07 0.07 0.07 0.07 0.09 0.10 0.13 0.19 0.19 0.18 0.15 0.14 0.11 0.10 0.11 0.09
0.05 0.04 0.04 0.05 0.06 0.05 0.03 0.02 0.01 0.01 0.01 0.02 0.02 0.02 0.02 0.02 0.02 0.02 0.02 0.03 0.03 0.03 0.03 0.03 0.03 0.04 0.06 0.07 0.07 0.07 0.07 0.08 0.08 0.08 0.09 0.11 0.15 0.16 0.14 0.13 0.13 0.13 0.12
0.02 0.02 0.03 0.02 0.03 0.04 0.05 0.03 0.02 0.02 0.02 0.01 0.02 0.02 0.02 0.01 0.01 0.02 0.02 0.02 0.03 0.04 0.04 0.04 0.03 0.03 0.05 0.04 0.04 0.05 0.05 0.07 0.07 0.07 0.06 0.06 0.07 0.12 0.15 0.15 0.15 0.16 0.14
0.01 0.02 0.03 0.03 0.02 0.02 0.03 0.04 0.03 0.03 0.02 0.02 0.02 0.01 0.01 0.01 0.01 0.02 0.02 0.02 0.02 0.02 0.04 0.04 0.02 0.02 0.03 0.03 0.03 0.02 0.02 0.03 0.04 0.05 0.06 0.07 0.06 0.06 0.09 0.13 0.13 0.13 0.14
0.02 0.03 0.03 0.04 0.02 0.02 0.02 0.02 0.02 0.02 0.02 0.02 0.03 0.03 0.02 0.02 0.02 0.01 0.01 0.01 0.01 0.02 0.03 0.03 0.02 0.02 0.03 0.03 0.02 0.02 0.02 0.03 0.04 0.05 0.06 0.07 0.07 0.06 0.05 0.10 0.15 0.14 0.13
0.04 0.05 0.04 0.04 0.03 0.03 0.02 0.03 0.02 0.02 0.02 0.02 0.02 0.02 0.03 0.03 0.03 0.02 0.01 0.01 0.01 0.02 0.02 0.02 0.02 0.01 0.03 0.03 0.02 0.02 0.03 0.03 0.04 0.04 0.04 0.05 0.06 0.06 0.05 0.07 0.10 0.13 0.13
0.05 0.05 0.06 0.06 0.06 0.05 0.05 0.04 0.03 0.03 0.03 0.02 0.02 0.02 0.02 0.03 0.03 0.04 0.03 0.02 0.02 0.02 0.01 0.01 0.01 0.01 0.02 0.02 0.02 0.02 0.02 0.03 0.03 0.03 0.03 0.03 0.04 0.05 0.05 0.06 0.10 0.13 0.14
0.05 0.05 0.06 0.06 0.06 0.06 0.07 0.06 0.04 0.03 0.04 0.03 0.02 0.02 0.01 0.02 0.02 0.03 0.03 0.03 0.03 0.02 0.02 0.02 0.02 0.02 0.02 0.02 0.02 0.02 0.02 0.01 0.01 0.03 0.03 0.03 0.04 0.04 0.04 0.05 0.10 0.14 0.15
0.04 0.05 0.05 0.06 0.07 0.07 0.08 0.08 0.06 0.05 0.05 0.05 0.04 0.04 0.03 0.03 0.03 0.03 0.04 0.04 0.04 0.03 0.02 0.01 0.01 0.01 0.01 0.02 0.03 0.04 0.05 0.05 0.03 0.03 0.05 0.07 0.05 0.04 0.05 0.06 0.10 0.13 0.14
0.03 0.04 0.06 0.06 0.07 0.07 0.08 0.10 0.11 0.10 0.08 0.07 0.05 0.04 0.03 0.03 0.03 0.03 0.03 0.03 0.03 0.03 0.03 0.02 0.02 0.01 0.01 0.01 0.01 0.02 0.03 0.04 0.03 0.03 0.04 0.06 0.05 0.05 0.06 0.06 0.08 0.10 0.11
0.04 0.07 0.07 0.07 0.07 0.08 0.08 0.09 0.10 0.09 0.07 0.05 0.05 0.04 0.03 0.03 0.03 0.03 0.03 0.02 0.03 0.03 0.03 0.03 0.03 0.02 0.01 0.01 0.01 0.01 0.01 0.02 0.02 0.02 0.02 0.03 0.04 0.05 0.06 0.06 0.06 0.08 0.08
0.05 0.06 0.08 0.09 0.10 0.09 0.09 0.09 0.09 0.08 0.08 0.07 0.05 0.04 0.03 0.02 0.02 0.02 0.02 0.02 0.03 0.03 0.04 0.04 0.04 0.02 0.02 0.01 0.01 0.01 0.01 0.01 0.01 0.02 0.02 0.03 0.03 0.03 0.04 0.04 0.06 0.07 0.07
0.03 0.04 0.07 0.08 0.08 0.09 0.09 0.08 0.09 0.08 0.07 0.05 0.03 0.03 0.02 0.02 0.02 0.01 0.01 0.02 0.03 0.04 0.05 0.04 0.03 0.02 0.01 0.01 0.01 0.01 0.01 0.01 0.01 0.02 0.02 0.03 0.04 0.04 0.03 0.04 0.06 0.08 0.06
0.03 0.04 0.04 0.04 0.04 0.05 0.06 0.06 0.06 0.06 0.06 0.05 0.04 0.03 0.03 0.02 0.02 0.02 0.02 0.02 0.02 0.04 0.04 0.03 0.02 0.02 0.01 0.01 0.01 0.01 0.01 0.02 0.02 0.02 0.03 0.04 0.04 0.04 0.04 0.05 0.07 0.10 0.06
0.03 0.03 0.02 0.02 0.02 0.03 0.03 0.03 0.03 0.03 0.02 0.02 0.02 0.02 0.02 0.02 0.02 0.02 0.01 0.01 0.01 0.02 0.02 0.02 0.02 0.02 0.02 0.02 0.02 0.02 0.01 0.01 0.01 0.01 0.03 0.05 0.05 0.04 0.05 0.05 0.08 0.11 0.07
0.02 0.01 0.01 0.01 0.01 0.02 0.02 0.02 0.02 0.01 0.01 0.01 0.01 0.02 0.03 0.03 0.03 0.02 0.02 0.02 0.02 0.01 0.02 0.02 0.02 0.02 0.02 0.02 0.03 0.02 0.02 0.02 0.01 0.01 0.01 0.04 0.07 0.06 0.07 0.07 0.09 0.12 0.09
MSLP
1001.92 1001.80 1001.67 1001.54 1001.43 1001.38 1001.41 1001.53 1001.73 1001.97 1002.24 1002.50 1002.75 1002.99 1003.23 1003.50 1003.79 1004.12 1004.47 1004.83 1005.19 1005.54 1005.90 1006.27 1006.70 1007.19 1007.77 1008.43 1009.16 1009.92 1010.67 1011.40 1012.08 1012.71 1013.30 1013.87 1014.45 1015.03 1015.62 1016.18 1016.70 1017.16 1017.55
1002.67 1002.44 1002.22 1002.03 1001.89 1001.82 1001.85 1001.99 1002.21 1002.52 1002.86 1003.20 1003.52 1003.81 1004.05 1004.27 1004.46 1004.65 1004.83 1005.04 1005.27 1005.53 1005.86 1006.26 1006.74 1007.31 1007.96 1008.67 1009.40 1010.13 1010.84 1011.50 1012.11 1012.69 1013.26 1013.83 1014.41 1015.01 1015.60 1016.16 1016.68 1017.13 1017.52
1003.63 1003.30 1003.00 1002.75 1002.58 1002.50 1002.54 1002.70 1002.97 1003.31 1003.70 1004.09 1004.44 1004.73 1004.95 1005.10 1005.18 1005.23 1005.27 1005.34 1005.46 1005.67 1005.97 1006.39 1006.93 1007.55 1008.23 1008.95 1009.66 1010.35 1010.98 1011.57 1012.11 1012.64 1013.17 1013.73 1014.32 1014.92 1015.52 1016.09 1016.61 1017.05 1017.44
1004.77 1004.37 1004.03 1003.75 1003.56 1003.48 1003.51 1003.67 1003.94 1004.29 1004.67 1005.04 1005.37 1005.63 1005.79 1005.87 1005.86 1005.81 1005.75 1005.73 1005.79 1005.97 1006.27 1006.70 1007.25 1007.89 1008.57 1009.25 1009.91 1010.52 1011.07 1011.57 1012.05 1012.53 1013.04 1013.59 1014.18 1014.79 1015.40 1015.97 1016.48 1016.93 1017.32
1005.96 1005.56 1005.21 1004.93 1004.74 1004.65 1004.66 1004.79 1005.00 1005.29 1005.60 1005.91 1006.18 1006.37 1006.48 1006.50 1006.45 1006.35 1006.26 1006.21 1006.26 1006.43 1006.73 1007.17 1007.71 1008.31 1008.94 1009.56 1010.13 1010.63 1011.09 1011.51 1011.93 1012.37 1012.87 1013.42 1014.02 1014.64 1015.25 1015.82 1016.33 1016.77 1017.17
1007.09 1006.71 1006.38 1006.13 1005.94 1005.84 1005.82 1005.87 1005.99 1006.17 1006.38 1006.58 1006.76 1006.89 1006.97 1006.97 1006.93 1006.85 1006.80 1006.79 1006.87 1007.05 1007.36 1007.77 1008.26 1008.80 1009.33 1009.84 1010.29 1010.69 1011.05 1011.40 1011.77 1012.20 1012.69 1013.25 1013.86 1014.49 1015.10 1015.66 1016.16 1016.60 1016.99
1008.05 1007.71 1007.43 1007.21 1007.04 1006.91 1006.84 1006.81 1006.81 1006.86 1006.93 1007.03 1007.13 1007.22 1007.29 1007.33 1007.35 1007.36 1007.39 1007.46 1007.59 1007.81 1008.10 1008.46 1008.87 1009.30 1009.72 1010.09 1010.42 1010.71 1010.99 1011.28 1011.62 1012.04 1012.53 1013.10 1013.72 1014.35 1014.96 1015.51 1015.99 1016.42 1016.81
1008.84 1008.55 1008.31 1008.12 1007.96 1007.82 1007.69 1007.56 1007.45 1007.37 1007.33 1007.32 1007.36 1007.43 1007.54 1007.65 1007.77 1007.90 1008.04 1008.20 1008.39 1008.62 1008.88 1009.18 1009.49 1009.79 1010.07 1010.31 1010.52 1010.72 1010.93 1011.18 1011.51 1011.92 1012.42 1013.00 1013.61 1014.23 1014.83 1015.35 1015.81 1016.22 1016.59
1009.52 1009.25 1009.05 1008.88 1008.73 1008.57 1008.39 1008.19 1007.99 1007.80 1007.66 1007.59 1007.60 1007.68 1007.84 1008.03 1008.27 1008.51 1008.75 1008.98 1009.20 1009.42 1009.63 1009.84 1010.03 1010.20 1010.35 1010.48 1010.60 1010.73 1010.89 1011.12 1011.44 1011.85 1012.35 1012.92 1013.52 1014.12 1014.67 1015.17 1015.59 1015.98 1016.33
1010.17 1009.92 1009.74 1009.59 1009.45 1009.27 1009.06 1008.81 1008.53 1008.29 1008.09 1007.97 1007.97 1008.07 1008.27 1008.54 1008.85 1009.16 1009.46 1009.71 1009.93 1010.11 1010.25 1010.37 1010.45 1010.51 1010.55 1010.59 1010.65 1010.73 1010.88 1011.10 1011.41 1011.82 1012.30 1012.84 1013.40 1013.95 1014.46 1014.91 1015.30 1015.65 1016.00
1010.85 1010.61 1010.45 1010.31 1010.17 1010.00 1009.77 1009.49 1009.19 1008.90 1008.68 1008.55 1008.54 1008.65 1008.87 1009.16 1009.49 1009.82 1010.11 1010.34 1010.51 1010.63 1010.69 1010.71 1010.70 1010.68 1010.66 1010.65 1010.68 1010.75 1010.89 1011.10 1011.40 1011.78 1012.23 1012.71 1013.22 1013.70 1014.15 1014.55 1014.90 1015.23 1015.56
1011.57 1011.34 1011.19 1011.07 1010.95 1010.78 1010.56 1010.28 1009.97 1009.68 1009.45 1009.30 1009.28 1009.37 1009.57 1009.84 1010.13 1010.41 1010.63 1010.80 1010.89 1010.92 1010.90 1010.85 1010.78 1010.73 1010.69 1010.67 1010.70 1010.77 1010.91 1011.11 1011.37 1011.71 1012.09 1012.51 1012.93 1013.34 1013.72 1014.07 1014.39 1014.70 1015.03
1012.26 1012.06 1011.93 1011.83 1011.72 1011.58 1011.37 1011.11 1010.83 1010.54 1010.31 1010.16 1010.11 1010.17 1010.31 1010.50 1010.70 1010.88 1011.01 1011.07 1011.07 1011.02 1010.93 1010.84 1010.76 1010.71 1010.68 1010.69 1010.73 1010.81 1010.94 1011.11 1011.32 1011.58 1011.87 1012.19 1012.53 1012.85 1013.17 1013.47 1013.77 1014.08 1014.41
1012.85 1012.69 1012.58 1012.50 1012.41 1012.29 1012.11 1011.89 1011.63 1011.37 1011.15 1010.99 1010.92 1010.92 1010.98 1011.07 1011.16 1011.22 1011.23 1011.18 1011.10 1010.99 1010.87 1010.78 1010.72 1010.69 1010.71 1010.75 1010.81 1010.89 1010.99 1011.11 1011.24 1011.40 1011.59 1011.80 1012.03 1012.28 1012.53 1012.81 1013.09 1013.40 1013.75
1013.26 1013.13 1013.04 1012.98 1012.92 1012.82 1012.68 1012.49 1012.27 1012.05 1011.85 1011.69 1011.59 1011.54 1011.52 1011.51 1011.49 1011.44 1011.35 1011.22 1011.08 1010.94 1010.83 1010.77 1010.75 1010.77 1010.83 1010.91 1010.99 1011.05 1011.09 1011.13 1011.16 1011.20 1011.26 1011.36 1011.49 1011.67 1011.88 1012.12 1012.40 1012.71 1013.07
1013.43 1013.32 1013.26 1013.21 1013.17 1013.09 1012.98 1012.83 1012.66 1012.48 1012.32 1012.18 1012.07 1011.99 1011.91 1011.84 1011.73 1011.60 1011.45 1011.27 1011.11 1010.99 1010.91 1010.89 1010.93 1011.02 1011.11 1011.21 1011.27 1011.29 1011.26 1011.19 1011.10 1011.02 1010.96 1010.95 1010.99 1011.09 1011.26 1011.48 1011.75 1012.07 1012.43
1013.35 1013.27 1013.21 1013.18 1013.14 1013.08 1013.00 1012.89 1012.77 1012.65 1012.53 1012.43 1012.34 1012.26 1012.17 1012.07 1011.93 1011.77 1011.60 1011.43 1011.29 1011.20 1011.17 1011.21 1011.31 1011.43 1011.55 1011.64 1011.67 1011.62 1011.50 1011.32 1011.11 1010.91 1010.73 1010.62 1010.58 1010.62 1010.74 1010.93 1011.19 1011.49 1011.84
1013.11 1013.02 1012.97 1012.93 1012.89 1012.85 1012.79 1012.72 1012.65 1012.58 1012.52 1012.47 1012.43 1012.39 1012.33 1012.24 1012.12 1011.98 1011.83 1011.69 1011.60 1011.57 1011.59 1011.69 1011.82 1011.97 1012.09 1012.15 1012.12 1012.00 1011.79 1011.51 1011.20 1010.89 1010.61 1010.41 1010.30 1010.29 1010.36 1010.51 1010.73 1010.99 1011.30
1012.76 1012.66 1012.59 1012.54 1012.49 1012.45 1012.41 1012.37 1012.35 1012.34 1012.34 1012.36 1012.39 1012.40 1012.40 1012.36 1012.29 1012.20 1012.11 1012.03 1011.99 1012.01 1012.08 1012.21 1012.37 1012.51 1012.62 1012.64 1012.57 1012.38 1012.10 1011.74 1011.35 1010.96 1010.62 1010.35 1010.18 1010.11 1010.12 1010.21 1010.37 1010.57 1010.80
1012.37 1012.25 1012.15 1012.08 1012.02 1011.98 1011.95 1011.93 1011.94 1011.98 1012.05 1012.13 1012.22 1012.31 1012.37 1012.40 1012.39 1012.37 1012.33 1012.31 1012.33 1012.39 1012.49 1012.64 1012.80 1012.94 1013.02 1013.01 1012.90 1012.67 1012.35 1011.95 1011.52 1011.10 1010.73 1010.42 1010.20 1010.07 1010.01 1010.03 1010.09 1010.20 1010.34
1011.96 1011.81 1011.70 1011.60 1011.53 1011.47 1011.43 1011.43 1011.46 1011.53 1011.64 1011.77 1011.92 1012.07 1012.19 1012.29 1012.35 1012.39 1012.41 1012.43 1012.49 1012.57 1012.70 1012.85 1013.00 1013.12 1013.19 1013.17 1013.04 1012.81 1012.49 1012.11 1011.69 1011.27 1010.89 1010.57 1010.32 1010.13 1010.01 1009.94 1009.90 1009.89 1009.92
1011.54 1011.37 1011.22 1011.10 1011.00 1010.93 1010.88 1010.87 1010.90 1010.99 1011.12 1011.28 1011.47 1011.66 1011.83 1011.97 1012.09 1012.17 1012.23 1012.29 1012.36 1012.46 1012.59 1012.73 1012.87 1012.99 1013.06 1013.05 1012.95 1012.76 1012.49 1012.15 1011.79 1011.42 1011.08 1010.77 1010.50 1010.27 1010.08 1009.92 1009.77 1009.65 1009.57
1011.07 1010.87 1010.70 1010.56 1010.43 1010.33 1010.27 1010.24 1010.26 1010.33 1010.47 1010.64 1010.84 1011.05 1011.25 1011.42 1011.56 1011.67 1011.76 1011.84 1011.93 1012.03 1012.15 1012.29 1012.43 1012.55 1012.64 1012.66 1012.62 1012.50 1012.32 1012.08 1011.80 1011.51 1011.22 1010.95 1010.68 1010.43 1010.19 1009.95 1009.72 1009.51 1009.32
1010.52 1010.30 1010.11 1009.94 1009.79 1009.67 1009.57 1009.51 1009.51 1009.56 1009.67 1009.83 1010.03 1010.25 1010.46 1010.65 1010.81 1010.94 1011.04 1011.13 1011.22 1011.32 1011.45 1011.59 1011.73 1011.87 1011.99 1012.07 1012.10 1012.07 1011.99 1011.86 1011.69 1011.50 1011.29 1011.06 1010.83 1010.57 1010.30 1010.02 1009.73 1009.46 1009.21
1009.90 1009.66 1009.45 1009.25 1009.08 1008.93 1008.80 1008.71 1008.67 1008.69 1008.78 1008.93 1009.11 1009.32 1009.54 1009.73 1009.91 1010.05 1010.17 1010.28 1010.38 1010.48 1010.61 1010.75 1010.91 1011.07 1011.23 1011.36 1011.47 1011.53 1011.55 1011.53 1011.47 1011.37 1011.23 1011.07 1010.88 1010.65 1010.39 1010.11 1009.81 1009.51 1009.25
1009.25 1008.98 1008.75 1008.53 1008.33 1008.15 1007.99 1007.87 1007.81 1007.80 1007.87 1007.99 1008.17 1008.37 1008.59 1008.80 1008.99 1009.16 1009.30 1009.42 1009.53 1009.65 1009.77 1009.93 1010.09 1010.28 1010.46 1010.64 1010.80 1010.93 1011.03 1011.09 1011.12 1011.11 1011.05 1010.96 1010.82 1010.63 1010.42 1010.17 1009.90 1009.63 1009.39
Thickness
5766 5766 5766 5765 5765 5764 5764 5763 5763 5763 5763 5763 5763 5762 5761 5761 5760 5760 5759 5759 5758 5758 5757 5756 5755 5754 5753 5751 5750 5749 5749 5748 5747 5745 5744 5743 5742 5741 5739 5738 5737 5736 5734
5766 5765 5764 5763 5763 5763 5763 5762 5762 5762 5761 5761 5761 5760 5760 5760 5759 5759 5758 5757 5757 5757 5756 5756 5755 5754 5752 5751 5750 5749 5748 5747 5746 5745 5743 5742 5741 5740 5739 5738 5737 5735 5734
5764 5764 5763 5762 5762 5762 5762 5761 5761 5760 5760 5759 5759 5759 5759 5758 5758 5758 5757 5756 5756 5756 5755 5755 5754 5753 5752 5751 5750 5749 5748 5747 5746 5744 5743 5742 5741 5740 5739 5738 5736 5735 5734
5763 5762 5761 5761 5761 5761 5761 5760 5759 5758 5757 5756 5756 5756 5756 5756 5756 5756 5755 5755 5754 5754 5754 5754 5753 5753 5752 5751 5750 5748 5747 5746 5744 5743 5742 5741 5740 5739 5738 5737 5736 5735 5733
5763 5761 5760 5760 5760 5759 5759 5758 5756 5755 5754 5754 5754 5754 5754 5754 5754 5754 5753 5753 5753 5752 5752 5752 5751 5752 5751 5750 5749 5747 5746 5745 5744 5742 5741 5741 5740 5739 5738 5737 5735 5734 5732
5762 5761 5760 5759 5758 5757 5756 5755 5754 5753 5752 5752 5752 5751 5751 5751 5751 5751 5751 5751 5751 5751 5750 5749 5749 5749 5749 5749 5748 5746 5745 5744 5743 5742 5741 5740 5739 5738 5737 5736 5735 5733 5732
5759 5759 5758 5757 5756 5755 5754 5753 5752 5751 5749 5749 5747 5746 5747 5749 5749 5748 5749 5748 5748 5748 5747 5747 5747 5747 5746 5746 5746 5745 5744 5743 5742 5741 5740 5739 5739 5738 5737 5736 5734 5732 5731
5757 5757 5756 5754 5754 5753 5751 5751 5749 5747 5747 5746 5743 5739 5738 5740 5743 5746 5745 5745 5745 5745 5744 5744 5744 5744 5744 5743 5743 5743 5743 5742 5741 5740 5740 5740 5739 5738 5737 5735 5733 5731 5730
5755 5754 5753 5752 5751 5750 5748 5747 5746 5745 5742 5742 5742 5738 5733 5731 5735 5739 5740 5741 5741 5741 5741 5741 5741 5741 5740 5740 5741 5741 5741 5741 5740 5740 5739 5739 5739 5738 5736 5734 5732 5730 5729
5752 5751 5750 5749 5748 5747 5745 5745 5743 5742 5740 5738 5737 5737 5735 5734 5730 5730 5734 5736 5736 5737 5737 5738 5738 5737 5737 5737 5737 5738 5738 5738 5738 5738 5738 5737 5737 5736 5734 5732 5731 5730 5728
5749 5748 5747 5746 5744 5743 5742 5741 5740 5739 5737 5735 5733 5732 5731 5730 5729 5725 5724 5728 5730 5732 5733 5733 5733 5733 5733 5733 5733 5734 5735 5735 5735 5735 5735 5735 5734 5733 5732 5731 5730 5728 5727
5745 5744 5744 5742 5741 5740 5738 5737 5736 5735 5733 5732 5730 5729 5726 5724 5723 5721 5720 5721 5722 5726 5728 5729 5729 5729 5729 5729 5729 5730 5731 5731 5731 5731 5731 5731 5731 5731 5730 5730 5729 5727 5726
5740 5740 5740 5738 5737 5736 5735 5733 5731 5730 5729 5727 5725 5724 5723 5721 5720 5719 5716 5715 5716 5719 5721 5723 5724 5724 5724 5724 5724 5725 5726 5726 5726 5727 5727 5727 5727 5727 5727 5727 5727 5725 5724
5738 5737 5736 5735 5734 5733 5731 5729 5727 5725 5724 5722 5721 5719 5718 5717 5715 5714 5712 5710 5709 5710 5712 5715 5718 5719 5719 5719 5719 5719 5720 5721 5722 5722 5722 5722 5723 5723 5723 5723 5723 5722 5721
5736 5734 5733 5731 5729 5728 5726 5723 5721 5719 5718 5716 5715 5714 5712 5711 5710 5709 5708 5707 5703 5701 5703 5707 5709 5712 5712 5713 5713 5712 5713 5714 5716 5717 5717 5717 5718 5718 5718 5719 5719 5718 5718
5731 5730 5728 5726 5724 5722 5720 5718 5716 5714 5712 5711 5709 5707 5706 5705 5704 5703 5702 5701 5700 5697 5696 5700 5701 5703 5705 5706 5706 5706 5707 5708 5709 5710 5711 5712 5713 5713 5713 5714 5714 5715 5715
5727 5725 5723 5722 5720 5718 5716 5713 5711 5709 5706 5704 5702 5701 5700 5699 5697 5697 5696 5694 5693 5691 5690 5693 5694 5696 5696 5697 5698 5698 5699 5700 5702 5704 5705 5706 5707 5708 5708 5709 5710 5710 5711
5722 5720 5719 5717 5715 5713 5711 5708 5705 5703 5700 5698 5696 5695 5694 5693 5692 5690 5688 5687 5686 5685 5684 5684 5686 5687 5688 5689 5689 5690 5691 5693 5694 5696 5698 5699 5701 5701 5703 5703 5704 5704 5705
5717 5715 5713 5712 5710 5708 5706 5703 5701 5698 5695 5693 5691 5689 5688 5686 5685 5684 5682 5680 5679 5679 5677 5676 5677 5678 5678 5679 5679 5681 5683 5684 5686 5689 5690 5692 5693 5694 5696 5697 5698 5698 5698
5711 5709 5708 5706 5705 5703 5701 5698 5696 5693 5690 5688 5687 5685 5683 5681 5680 5678 5676 5674 5673 5671 5669 5668 5668 5669 5669 5669 5670 5671 5673 5676 5678 5681 5682 5684 5686 5687 5688 5689 5690 5691 5691
5705 5704 5702 5700 5699 5698 5696 5693 5690 5688 5685 5683 5681 5679 5678 5676 5675 5673 5671 5669 5667 5664 5662 5661 5660 5660 5660 5659 5661 5662 5664 5666 5669 5671 5673 5676 5678 5679 5680 5681 5683 5684 5684
5698 5697 5695 5693 5692 5691 5689 5687 5684 5681 5679 5676 5674 5673 5672 5670 5669 5667 5664 5663 5661 5658 5656 5654 5653 5652 5653 5653 5653 5654 5655 5656 5659 5663 5663 5666 5668 5670 5671 5673 5675 5677 5677
5692 5689 5688 5686 5684 5683 5681 5679 5677 5674 5671 5669 5668 5666 5665 5665 5662 5659 5658 5657 5655 5653 5651 5649 5648 5647 5647 5647 5646 5646 5646 5647 5649 5653 5653 5657 5659 5661 5664 5666 5667 5669 5671
5684 5682 5680 5677 5676 5675 5673 5671 5669 5666 5663 5662 5660 5658 5656 5655 5654 5652 5651 5650 5648 5647 5645 5644 5644 5643 5643 5642 5640 5640 5640 5641 5642 5644 5644 5647 5651 5653 5656 5658 5660 5661 5663
5677 5674 5672 5670 5668 5666 5665 5663 5661 5658 5655 5654 5652 5651 5649 5648 5647 5645 5643 5642 5641 5640 5640 5638 5638 5637 5637 5636 5635 5634 5634 5633 5635 5638 5637 5638 5642 5644 5647 5650 5652 5653 5655
5670 5667 5665 5663 5660 5658 5657 5655 5653 5650 5647 5646 5645 5644 5642 5641 5639 5637 5635 5634 5633 5633 5632 5632 5631 5630 5630 5629 5628 5628 5628 5627 5627 5629 5631 5630 5633 5634 5637 5642 5643 5644 5645